Content
SEND FEEDBACK

Daily
Averages
Monthly
Summary
United States of America

HARDING, SOUTH DAKOTA


Home > North America > United States > South Dakota
Elevation: 3900 feet     Latitude: 45 24N     Longitude: 103 50W

WEATHER
 
SELECT A DAY
Number of Records: 171,406;   Date Range: 7/1/96 - 9/29/14
 
SHARE

PRINT THIS DATA

[ ← Previous Day ]
WEATHER ALMANAC - JANUARY 31, 2013
[ Next Day → ]
[ °C ]   °F
Weather ElementAverageHighLow
Temperature-0.2 °F12.9 °F (11:56 pm)-14.1 °F (7:56 am)
Dewpoint-8.1 °F8.1 °F (11:56 pm)-20 °F (7:56 am)
Humidity69.3 %81 % (11:56 pm)60 % (1:56 pm)
Barometer30.27 in30.38 in (8:56 am)30.10 in (1:56 am)
Wind Speed13.8 mph29.9 mph (1:56 am)
Wind Gust38 mph (1:56 am)
Weather ElementAverage
Wind DirectionWSW (262.2 °)

Weather ElementTotal
Precipitation---
Heating Degree Days65.6 (Base 65)
Averaged from 23 records on January 31, 2013
WEATHER CONDITIONS BREAKOUT
WIND DIRECTION BREAKOUT
WEATHER BY HOUR - JANUARY 31, 2013
[ °C ]   °F
Local TimeTemperatureDewpointHumidityBarometerVisibilityWind DirectionWind SpeedGust SpeedPrecipitationEventsConditions
1:56 AM-0.9 °F-9.0 °F69 %30.10 inNW (320°)29.9 mph38.0 mph
2:56 AM-5.1 °F-11.9 °F72 %30.14 inNW (320°)28.8 mph36.8 mph
3:56 AM-7.1 °F-14.1 °F72 %30.18 inNNW (330°)24.2 mph28.8 mph
4:56 AM-9.9 °F-17.0 °F71 %30.24 inNW (310°)21.9 mph31.1 mph
5:56 AM-11.9 °F-18.9 °F71 %30.31 inWNW (300°)16.1 mph
6:56 AM-13.0 °F-18.9 °F75 %30.32 inNW (310°)15.0 mph
7:56 AM-14.1 °F-20.0 °F75 %30.37 inNW (310°)19.6 mph
8:56 AM-11.0 °F-18.0 °F71 %30.38 inNW (310°)19.6 mph
9:56 AM-7.1 °F-16.1 °F65 %30.38 inWNW (300°)18.4 mph
10:56 AM-4.0 °F-13.0 °F65 %30.38 inWest (270°)16.1 mph
11:56 AM-0.9 °F-11.0 °F62 %30.35 inWNW (290°)17.3 mph
12:56 PM1.0 °F-9.0 °F63 %30.33 inWNW (290°)17.3 mph21.9 mph
1:56 PM1.9 °F-9.0 °F60 %30.30 inWNW (290°)13.8 mph
2:56 PM3.9 °F-7.1 °F60 %30.30 inWNW (300°)11.5 mph
3:56 PM5.0 °F-5.1 °F63 %30.29 inWest (270°)10.4 mph
4:56 PM5.0 °F-4.0 °F66 %30.29 inWest (280°)8.1 mph
5:56 PM6.1 °F-2.0 °F69 %30.27 inWest (280°)3.5 mph
6:56 PM7.0 °F-0.9 °F70 %30.26 inWest (280°)4.6 mph
7:56 PM8.1 °F0.0 °F70 %30.24 inSouth (180°)3.5 mph
8:56 PM9.0 °F1.9 °F73 %30.22 inSouth (170°)6.9 mph
9:56 PM10.0 °F3.0 °F73 %30.18 inSSE (160°)4.6 mph
10:56 PM10.9 °F5.0 °F77 %30.15 inCalm
11:56 PM12.9 °F8.1 °F81 %30.12 inSSE (160°)5.8 mph
Hourly data recorded from K2WX, located miles away from Harding, South Dakota







STORIES FROM OUR PARTNERS